Wetterdaten: Sonntag, 28.06.2015
Datum Zeit Temp. A. Feuchte A. Luftdruck Regen Wind Richtung Richtung Sonnenschein ET UV Solar Taupunkt Windchill Windben Empfang
28.06.2015 00:00 13,2 C 89 % 1018,4 hPa 0,0 l/m 0,0 km/h (0 Bft) NO 55 0 min 0,000 mm 0,0 UV-I 0 W/m 11,4 C 13,2 C 0,0 km/h (0 Bft) 0,00 %
28.06.2015 00:05 13,0 C 90 % 1018,8 hPa 0,3 l/m 0,0 km/h (0 Bft) NO 48 0 min 0,000 mm 0,0 UV-I 0 W/m 11,4 C 13,0 C 0,0 km/h (0 Bft) 0,00 %
28.06.2015 00:10 12,8 C 91 % 1019,0 hPa 0,3 l/m 0,0 km/h (0 Bft) N-NO 25 0 min 0,000 mm 0,0 UV-I 0 W/m 11,4 C 12,8 C 0,0 km/h (0 Bft) 0,00 %
28.06.2015 00:15 12,9 C 92 % 1019,2 hPa 0,6 l/m 0,4 km/h (0 Bft) N 353 0 min 0,000 mm 0,0 UV-I 0 W/m 11,6 C 12,9 C 4,0 km/h (1 Bft) 0,00 %
28.06.2015 00:20 12,9 C 92 % 1019,1 hPa 0,3 l/m 0,0 km/h (0 Bft) N 355 0 min 0,000 mm 0,0 UV-I 0 W/m 11,6 C 12,9 C 0,0 km/h (0 Bft) 0,00 %
28.06.2015 00:25 12,9 C 92 % 1019,3 hPa 0,3 l/m 0,0 km/h (0 Bft) O-NO 67 0 min 0,000 mm 0,0 UV-I 0 W/m 11,6 C 12,9 C 0,0 km/h (0 Bft) 0,00 %
28.06.2015 00:30 12,9 C 93 % 1019,3 hPa 0,0 l/m 0,0 km/h (0 Bft) N-NO 12 0 min 0,000 mm 0,0 UV-I 0 W/m 11,8 C 12,9 C 0,0 km/h (0 Bft) 0,00 %
28.06.2015 00:35 12,9 C 93 % 1019,3 hPa 0,0 l/m 0,0 km/h (0 Bft) O-NO 57 0 min 0,000 mm 0,0 UV-I 0 W/m 11,8 C 12,9 C 0,0 km/h (0 Bft) 0,00 %
28.06.2015 00:40 13,0 C 94 % 1019,1 hPa 0,0 l/m 0,0 km/h (0 Bft) NO 35 0 min 0,000 mm 0,0 UV-I 0 W/m 12,1 C 13,0 C 0,0 km/h (0 Bft) 0,00 %
28.06.2015 00:45 13,0 C 94 % 1019,0 hPa 0,0 l/m 0,0 km/h (0 Bft) NO 51 0 min 0,000 mm 0,0 UV-I 0 W/m 12,1 C 13,0 C 0,0 km/h (0 Bft) 0,00 %
28.06.2015 00:50 13,1 C 94 % 1019,3 hPa 0,0 l/m 0,0 km/h (0 Bft) N-NO 33 0 min 0,000 mm 0,0 UV-I 0 W/m 12,2 C 13,1 C 0,0 km/h (0 Bft) 0,00 %
28.06.2015 00:55 13,1 C 94 % 1019,2 hPa 0,3 l/m 0,0 km/h (0 Bft) NO 46 0 min 0,000 mm 0,0 UV-I 0 W/m 12,2 C 13,1 C 0,0 km/h (0 Bft) 0,00 %
28.06.2015 01:00 13,1 C 95 % 1019,0 hPa 0,0 l/m 0,0 km/h (0 Bft) NO 44 0 min 0,000 mm 0,0 UV-I 0 W/m 12,3 C 13,1 C 0,0 km/h (0 Bft) 0,00 %
28.06.2015 01:05 13,1 C 95 % 1018,8 hPa 0,0 l/m 1,8 km/h (1 Bft) W 264 0 min 0,000 mm 0,0 UV-I 0 W/m 12,3 C 13,1 C 4,0 km/h (1 Bft) 0,00 %
28.06.2015 01:10 13,2 C 95 % 1018,8 hPa 0,0 l/m 0,7 km/h (0 Bft) N-NW 340 0 min 0,000 mm 0,0 UV-I 0 W/m 12,4 C 13,2 C 4,0 km/h (1 Bft) 0,00 %
28.06.2015 01:15 13,2 C 95 % 1018,8 hPa 0,0 l/m 0,0 km/h (0 Bft) N 354 0 min 0,000 mm 0,0 UV-I 0 W/m 12,4 C 13,2 C 0,0 km/h (0 Bft) 0,00 %
28.06.2015 01:20 13,2 C 95 % 1018,8 hPa 0,0 l/m 0,7 km/h (0 Bft) N-NO 30 0 min 0,000 mm 0,0 UV-I 0 W/m 12,4 C 13,2 C 4,0 km/h (1 Bft) 0,00 %
28.06.2015 01:25 13,1 C 95 % 1018,8 hPa 0,0 l/m 0,0 km/h (0 Bft) NO 50 0 min 0,000 mm 0,0 UV-I 0 W/m 12,3 C 13,1 C 0,0 km/h (0 Bft) 0,00 %
28.06.2015 01:30 13,1 C 94 % 1018,7 hPa 0,0 l/m 0,4 km/h (0 Bft) NO 36 0 min 0,000 mm 0,0 UV-I 0 W/m 12,2 C 13,1 C 4,0 km/h (1 Bft) 0,00 %
28.06.2015 01:35 13,1 C 94 % 1018,8 hPa 0,0 l/m 0,4 km/h (0 Bft) N-NO 30 0 min 0,000 mm 0,0 UV-I 0 W/m 12,2 C 13,1 C 4,0 km/h (1 Bft) 0,00 %
28.06.2015 01:40 13,1 C 93 % 1018,7 hPa 0,0 l/m 4,7 km/h (1 Bft) O-SO 122 0 min 0,000 mm 0,0 UV-I 0 W/m 12,0 C 13,1 C 7,9 km/h (2 Bft) 0,00 %
28.06.2015 01:45 13,0 C 93 % 1018,6 hPa 0,0 l/m 0,0 km/h (0 Bft) O 81 0 min 0,000 mm 0,0 UV-I 0 W/m 11,9 C 13,0 C 0,0 km/h (0 Bft) 0,00 %
28.06.2015 01:50 13,0 C 93 % 1018,6 hPa 0,0 l/m 0,0 km/h (0 Bft) O-NO 66 0 min 0,000 mm 0,0 UV-I 0 W/m 11,9 C 13,0 C 0,0 km/h (0 Bft) 0,00 %
28.06.2015 01:55 13,0 C 92 % 1018,7 hPa 0,0 l/m 0,0 km/h (0 Bft) N 355 0 min 0,000 mm 0,0 UV-I 0 W/m 11,7 C 13,0 C 0,0 km/h (0 Bft) 0,00 %
28.06.2015 02:00 13,0 C 93 % 1018,6 hPa 0,0 l/m 0,0 km/h (0 Bft) N-NW 343 0 min 0,000 mm 0,0 UV-I 0 W/m 11,9 C 13,0 C 0,0 km/h (0 Bft) 0,00 %
28.06.2015 02:05 12,9 C 93 % 1018,5 hPa 0,0 l/m 0,4 km/h (0 Bft) N-NW 332 0 min 0,000 mm 0,0 UV-I 0 W/m 11,8 C 12,9 C 4,0 km/h (1 Bft) 0,00 %
28.06.2015 02:10 12,9 C 93 % 1018,6 hPa 0,0 l/m 0,0 km/h (0 Bft) NO 35 0 min 0,000 mm 0,0 UV-I 0 W/m 11,8 C 12,9 C 0,0 km/h (0 Bft) 0,00 %
28.06.2015 02:15 12,9 C 93 % 1018,7 hPa 0,0 l/m 0,0 km/h (0 Bft) N-NW 338 0 min 0,000 mm 0,0 UV-I 0 W/m 11,8 C 12,9 C 0,0 km/h (0 Bft) 0,00 %
28.06.2015 02:20 12,9 C 93 % 1018,5 hPa 0,0 l/m 0,0 km/h (0 Bft) N-NW 348 0 min 0,000 mm 0,0 UV-I 0 W/m 11,8 C 12,9 C 0,0 km/h (0 Bft) 0,00 %
28.06.2015 02:25 12,9 C 93 % 1018,7 hPa 0,0 l/m 0,0 km/h (0 Bft) N-NO 30 0 min 0,000 mm 0,0 UV-I 0 W/m 11,8 C 12,9 C 0,0 km/h (0 Bft) 0,00 %
28.06.2015 02:30 12,9 C 93 % 1018,6 hPa 0,0 l/m 0,0 km/h (0 Bft) NO 36 0 min 0,000 mm 0,0 UV-I 0 W/m 11,8 C 12,9 C 0,0 km/h (0 Bft) 0,00 %
28.06.2015 02:35 12,9 C 93 % 1018,7 hPa 0,0 l/m 0,0 km/h (0 Bft) NW 320 0 min 0,000 mm 0,0 UV-I 0 W/m 11,8 C 12,9 C 0,0 km/h (0 Bft) 0,00 %
28.06.2015 02:40 12,9 C 93 % 1018,7 hPa 0,0 l/m 0,0 km/h (0 Bft) NW 311 0 min 0,000 mm 0,0 UV-I 0 W/m 11,8 C 12,9 C 0,0 km/h (0 Bft) 0,00 %
28.06.2015 02:45 12,9 C 93 % 1018,7 hPa 0,0 l/m 0,0 km/h (0 Bft) N-NW 341 0 min 0,000 mm 0,0 UV-I 0 W/m 11,8 C 12,9 C 0,0 km/h (0 Bft) 0,00 %
28.06.2015 02:50 12,9 C 94 % 1018,7 hPa 0,0 l/m 0,4 km/h (0 Bft) N 355 0 min 0,000 mm 0,0 UV-I 0 W/m 12,0 C 12,9 C 4,0 km/h (1 Bft) 0,00 %
28.06.2015 02:55 12,9 C 94 % 1018,7 hPa 0,0 l/m 0,0 km/h (0 Bft) NO 39 0 min 0,000 mm 0,0 UV-I 0 W/m 12,0 C 12,9 C 0,0 km/h (0 Bft) 0,00 %
28.06.2015 03:00 12,9 C 94 % 1018,8 hPa 0,0 l/m 4,0 km/h (1 Bft) W-NW 291 0 min 0,000 mm 0,0 UV-I 0 W/m 12,0 C 12,9 C 4,0 km/h (1 Bft) 0,00 %
28.06.2015 03:05 12,9 C 94 % 1018,9 hPa 0,0 l/m 0,4 km/h (0 Bft) NW 307 0 min 0,000 mm 0,0 UV-I 0 W/m 12,0 C 12,9 C 4,0 km/h (1 Bft) 0,00 %
28.06.2015 03:10 12,9 C 94 % 1018,9 hPa 0,0 l/m 4,0 km/h (1 Bft) W-NW 297 0 min 0,000 mm 0,0 UV-I 0 W/m 12,0 C 12,9 C 4,0 km/h (1 Bft) 0,00 %
28.06.2015 03:15 12,9 C 95 % 1018,8 hPa 0,0 l/m 2,9 km/h (1 Bft) W-NW 301 0 min 0,000 mm 0,0 UV-I 0 W/m 12,1 C 12,9 C 4,0 km/h (1 Bft) 0,00 %
28.06.2015 03:20 12,9 C 95 % 1018,9 hPa 0,0 l/m 0,4 km/h (0 Bft) W-NW 295 0 min 0,000 mm 0,0 UV-I 0 W/m 12,1 C 12,9 C 4,0 km/h (1 Bft) 0,00 %
28.06.2015 03:25 12,9 C 95 % 1019,0 hPa 0,0 l/m 0,4 km/h (0 Bft) N 356 0 min 0,000 mm 0,0 UV-I 0 W/m 12,1 C 12,9 C 4,0 km/h (1 Bft) 0,00 %
28.06.2015 03:30 12,9 C 95 % 1018,9 hPa 0,0 l/m 1,8 km/h (1 Bft) W-SW 257 0 min 0,000 mm 0,0 UV-I 0 W/m 12,1 C 12,9 C 4,0 km/h (1 Bft) 0,00 %
28.06.2015 03:35 12,9 C 95 % 1019,1 hPa 0,0 l/m 0,7 km/h (0 Bft) NW 312 0 min 0,000 mm 0,0 UV-I 0 W/m 12,1 C 12,9 C 4,0 km/h (1 Bft) 0,00 %
28.06.2015 03:40 13,0 C 96 % 1018,9 hPa 0,0 l/m 0,4 km/h (0 Bft) NO 39 0 min 0,000 mm 0,0 UV-I 0 W/m 12,4 C 13,0 C 4,0 km/h (1 Bft) 0,00 %
28.06.2015 03:45 13,1 C 96 % 1018,9 hPa 0,0 l/m 0,4 km/h (0 Bft) N 355 0 min 0,000 mm 0,0 UV-I 0 W/m 12,5 C 13,1 C 4,0 km/h (1 Bft) 0,00 %
28.06.2015 03:50 13,1 C 96 % 1019,0 hPa 0,0 l/m 4,0 km/h (1 Bft) W-NW 289 0 min 0,000 mm 0,0 UV-I 0 W/m 12,5 C 13,1 C 7,9 km/h (2 Bft) 0,00 %
28.06.2015 03:55 13,2 C 96 % 1019,0 hPa 0,0 l/m 0,0 km/h (0 Bft) NW 307 0 min 0,000 mm 0,0 UV-I 0 W/m 12,6 C 13,2 C 0,0 km/h (0 Bft) 0,00 %
28.06.2015 04:00 13,3 C 96 % 1019,0 hPa 0,0 l/m 0,0 km/h (0 Bft) O-NO 67 0 min 0,000 mm 0,0 UV-I 0 W/m 12,7 C 13,3 C 0,0 km/h (0 Bft) 0,00 %
28.06.2015 04:05 13,3 C 96 % 1018,9 hPa 0,0 l/m 1,8 km/h (1 Bft) W-SW 256 0 min 0,000 mm 0,0 UV-I 0 W/m 12,7 C 13,3 C 4,0 km/h (1 Bft) 0,00 %
28.06.2015 04:10 13,4 C 96 % 1018,8 hPa 0,0 l/m 1,8 km/h (1 Bft) N-NW 334 0 min 0,000 mm 0,0 UV-I 0 W/m 12,8 C 13,4 C 4,0 km/h (1 Bft) 0,00 %
28.06.2015 04:15 13,4 C 96 % 1018,8 hPa 0,0 l/m 0,0 km/h (0 Bft) NO 34 0 min 0,000 mm 0,0 UV-I 0 W/m 12,8 C 13,4 C 0,0 km/h (0 Bft) 0,00 %
28.06.2015 04:20 13,4 C 96 % 1018,6 hPa 0,0 l/m 1,4 km/h (1 Bft) NW 316 0 min 0,000 mm 0,0 UV-I 0 W/m 12,8 C 13,4 C 4,0 km/h (1 Bft) 0,00 %
28.06.2015 04:25 13,4 C 95 % 1018,9 hPa 0,0 l/m 0,7 km/h (0 Bft) NW 309 0 min 0,000 mm 0,0 UV-I 0 W/m 12,6 C 13,4 C 4,0 km/h (1 Bft) 0,00 %
28.06.2015 04:30 13,4 C 95 % 1018,9 hPa 0,0 l/m 0,0 km/h (0 Bft) N 354 0 min 0,000 mm 0,0 UV-I 0 W/m 12,6 C 13,4 C 0,0 km/h (0 Bft) 0,00 %
28.06.2015 04:35 13,5 C 95 % 1018,8 hPa 0,0 l/m 0,0 km/h (0 Bft) N 357 0 min 0,000 mm 0,0 UV-I 0 W/m 12,7 C 13,5 C 0,0 km/h (0 Bft) 0,00 %
28.06.2015 04:40 13,5 C 95 % 1018,8 hPa 0,0 l/m 0,7 km/h (0 Bft) W-SW 258 0 min 0,000 mm 0,0 UV-I 0 W/m 12,7 C 13,5 C 4,0 km/h (1 Bft) 0,00 %
28.06.2015 04:45 13,5 C 95 % 1019,1 hPa 0,0 l/m 0,0 km/h (0 Bft) N-NW 328 0 min 0,000 mm 0,0 UV-I 0 W/m 12,7 C 13,5 C 0,0 km/h (0 Bft) 0,00 %
28.06.2015 04:50 13,5 C 95 % 1018,9 hPa 0,0 l/m 0,0 km/h (0 Bft) N 353 0 min 0,000 mm 0,0 UV-I 0 W/m 12,7 C 13,5 C 0,0 km/h (0 Bft) 0,00 %
28.06.2015 04:55 13,5 C 95 % 1019,1 hPa 0,0 l/m 0,0 km/h (0 Bft) N 357 0 min 0,000 mm 0,0 UV-I 0 W/m 12,7 C 13,5 C 0,0 km/h (0 Bft) 0,00 %
28.06.2015 05:00 13,5 C 95 % 1019,2 hPa 0,0 l/m 0,0 km/h (0 Bft) NO 41 0 min 0,000 mm 0,0 UV-I 0 W/m 12,7 C 13,5 C 0,0 km/h (0 Bft) 0,00 %
28.06.2015 05:05 13,5 C 95 % 1019,1 hPa 0,0 l/m 0,0 km/h (0 Bft) N-NO 28 0 min 0,000 mm 0,0 UV-I 0 W/m 12,7 C 13,5 C 0,0 km/h (0 Bft) 0,00 %
28.06.2015 05:10 13,5 C 95 % 1019,0 hPa 0,0 l/m 0,0 km/h (0 Bft) O 95 0 min 0,000 mm 0,0 UV-I 0 W/m 12,7 C 13,5 C 0,0 km/h (0 Bft) 0,00 %
28.06.2015 05:15 13,5 C 95 % 1019,0 hPa 0,0 l/m 0,0 km/h (0 Bft) NO 39 0 min 0,000 mm 0,0 UV-I 0 W/m 12,7 C 13,5 C 0,0 km/h (0 Bft) 0,00 %
28.06.2015 05:20 13,5 C 95 % 1019,1 hPa 0,0 l/m 0,0 km/h (0 Bft) NO 39 0 min 0,000 mm 0,0 UV-I 0 W/m 12,7 C 13,5 C 0,0 km/h (0 Bft) 0,00 %
28.06.2015 05:25 13,5 C 95 % 1019,1 hPa 0,0 l/m 0,0 km/h (0 Bft) N-NO 27 0 min 0,000 mm 0,0 UV-I 0 W/m 12,7 C 13,5 C 0,0 km/h (0 Bft) 0,00 %
28.06.2015 05:30 13,5 C 96 % 1019,1 hPa 0,0 l/m 0,0 km/h (0 Bft) N-NO 26 0 min 0,000 mm 0,0 UV-I 0 W/m 12,9 C 13,5 C 0,0 km/h (0 Bft) 0,00 %
28.06.2015 05:35 13,5 C 96 % 1019,4 hPa 0,0 l/m 0,0 km/h (0 Bft) N 355 0 min 0,000 mm 0,0 UV-I 0 W/m 12,9 C 13,5 C 0,0 km/h (0 Bft) 0,00 %
28.06.2015 05:40 13,5 C 96 % 1019,2 hPa 0,9 l/m 0,0 km/h (0 Bft) W-SW 255 0 min 0,000 mm 0,0 UV-I 0 W/m 12,9 C 13,5 C 0,0 km/h (0 Bft) 0,00 %
28.06.2015 05:45 13,5 C 96 % 1019,4 hPa 0,0 l/m 0,0 km/h (0 Bft) N-NW 332 0 min 0,000 mm 0,0 UV-I 0 W/m 12,9 C 13,5 C 0,0 km/h (0 Bft) 0,00 %
28.06.2015 05:50 13,5 C 96 % 1019,3 hPa 0,0 l/m 0,4 km/h (0 Bft) W-SW 253 0 min 0,000 mm 0,0 UV-I 6 W/m 12,9 C 13,5 C 4,0 km/h (1 Bft) 0,00 %
28.06.2015 05:55 13,6 C 96 % 1019,4 hPa 0,0 l/m 0,7 km/h (0 Bft) W-SW 256 0 min 0,000 mm 0,0 UV-I 17 W/m 13,0 C 13,6 C 4,0 km/h (1 Bft) 0,00 %
28.06.2015 06:00 13,6 C 96 % 1019,4 hPa 0,0 l/m 0,0 km/h (0 Bft) N-NO 31 0 min 0,000 mm 0,0 UV-I 19 W/m 13,0 C 13,6 C 0,0 km/h (0 Bft) 0,00 %
28.06.2015 06:05 13,6 C 96 % 1019,4 hPa 0,0 l/m 0,0 km/h (0 Bft) N-NO 23 0 min 0,000 mm 0,0 UV-I 43 W/m 13,0 C 13,6 C 0,0 km/h (0 Bft) 0,00 %
28.06.2015 06:10 13,6 C 96 % 1019,5 hPa 0,0 l/m 0,0 km/h (0 Bft) N-NO 24 0 min 0,000 mm 0,0 UV-I 73 W/m 13,0 C 13,6 C 0,0 km/h (0 Bft) 0,00 %
28.06.2015 06:15 13,6 C 96 % 1019,6 hPa 0,0 l/m 0,0 km/h (0 Bft) O 91 0 min 0,000 mm 0,0 UV-I 65 W/m 13,0 C 13,6 C 0,0 km/h (0 Bft) 0,00 %
28.06.2015 06:20 13,7 C 96 % 1019,5 hPa 0,0 l/m 2,9 km/h (1 Bft) SW 227 0 min 0,000 mm 0,0 UV-I 61 W/m 13,1 C 13,7 C 4,0 km/h (1 Bft) 0,00 %
28.06.2015 06:25 13,8 C 96 % 1019,4 hPa 0,0 l/m 0,0 km/h (0 Bft) N 353 0 min 0,000 mm 0,0 UV-I 56 W/m 13,2 C 13,8 C 0,0 km/h (0 Bft) 0,00 %
28.06.2015 06:30 13,9 C 96 % 1019,5 hPa 0,0 l/m 0,0 km/h (0 Bft) N-NW 327 0 min 0,000 mm 0,0 UV-I 40 W/m 13,3 C 13,9 C 0,0 km/h (0 Bft) 0,00 %
28.06.2015 06:35 13,9 C 96 % 1019,4 hPa 0,0 l/m 0,0 km/h (0 Bft) N 356 0 min 0,000 mm 0,0 UV-I 60 W/m 13,3 C 13,9 C 0,0 km/h (0 Bft) 0,00 %
28.06.2015 06:40 14,0 C 96 % 1019,5 hPa 0,0 l/m 0,0 km/h (0 Bft) N 351 0 min 0,000 mm 0,0 UV-I 56 W/m 13,4 C 14,0 C 0,0 km/h (0 Bft) 0,00 %
28.06.2015 06:45 14,0 C 96 % 1019,6 hPa 0,0 l/m 0,0 km/h (0 Bft) NO 37 0 min 0,000 mm 0,0 UV-I 42 W/m 13,4 C 14,0 C 0,0 km/h (0 Bft) 0,00 %
28.06.2015 06:50 14,0 C 96 % 1019,5 hPa 0,0 l/m 0,0 km/h (0 Bft) NO 38 0 min 0,000 mm 0,0 UV-I 51 W/m 13,4 C 14,0 C 0,0 km/h (0 Bft) 0,00 %
28.06.2015 06:55 14,0 C 96 % 1019,7 hPa 0,0 l/m 1,8 km/h (1 Bft) W-NW 300 0 min 0,000 mm 0,0 UV-I 62 W/m 13,4 C 14,0 C 4,0 km/h (1 Bft) 0,00 %
28.06.2015 07:00 14,1 C 96 % 1019,8 hPa 0,0 l/m 0,0 km/h (0 Bft) NO 40 0 min 0,000 mm 0,0 UV-I 107 W/m 13,5 C 14,1 C 0,0 km/h (0 Bft) 0,00 %
28.06.2015 07:05 14,1 C 96 % 1019,7 hPa 0,0 l/m 0,4 km/h (0 Bft) W-SW 254 0 min 0,000 mm 0,0 UV-I 50 W/m 13,5 C 14,1 C 4,0 km/h (1 Bft) 0,00 %
28.06.2015 07:10 14,1 C 96 % 1019,9 hPa 0,0 l/m 0,0 km/h (0 Bft) N-NO 27 0 min 0,000 mm 1,0 UV-I 61 W/m 13,5 C 14,1 C 0,0 km/h (0 Bft) 0,00 %
28.06.2015 07:15 14,2 C 96 % 1019,9 hPa 0,0 l/m 0,0 km/h (0 Bft) N-NO 32 5 min 0,000 mm 0,0 UV-I 203 W/m 13,6 C 14,2 C 0,0 km/h (0 Bft) 0,00 %
28.06.2015 07:20 14,2 C 96 % 1020,1 hPa 0,0 l/m 0,0 km/h (0 Bft) N-NO 29 5 min 0,000 mm 0,0 UV-I 206 W/m 13,6 C 14,2 C 0,0 km/h (0 Bft) 0,00 %
28.06.2015 07:25 14,3 C 96 % 1019,7 hPa 0,0 l/m 0,0 km/h (0 Bft) NO 36 0 min 0,000 mm 1,0 UV-I 156 W/m 13,7 C 14,3 C 0,0 km/h (0 Bft) 0,00 %
28.06.2015 07:30 14,4 C 95 % 1019,8 hPa 0,0 l/m 0,0 km/h (0 Bft) NW 325 0 min 0,000 mm 1,0 UV-I 137 W/m 13,6 C 14,4 C 0,0 km/h (0 Bft) 0,00 %
28.06.2015 07:35 14,6 C 95 % 1020,0 hPa 0,0 l/m 0,0 km/h (0 Bft) N-NO 24 0 min 0,000 mm 1,0 UV-I 134 W/m 13,8 C 14,6 C 0,0 km/h (0 Bft) 0,00 %
28.06.2015 07:40 14,9 C 95 % 1020,0 hPa 0,0 l/m 0,0 km/h (0 Bft) NO 45 0 min 0,000 mm 1,0 UV-I 95 W/m 14,1 C 14,9 C 0,0 km/h (0 Bft) 0,00 %
28.06.2015 07:45 14,9 C 94 % 1020,0 hPa 0,0 l/m 0,0 km/h (0 Bft) N-NO 32 0 min 0,000 mm 1,0 UV-I 105 W/m 13,9 C 14,9 C 0,0 km/h (0 Bft) 0,00 %
28.06.2015 07:50 14,9 C 94 % 1020,0 hPa 0,0 l/m 2,2 km/h (1 Bft) W-NW 300 0 min 0,000 mm 1,0 UV-I 141 W/m 13,9 C 14,9 C 7,9 km/h (2 Bft) 0,00 %
28.06.2015 07:55 14,8 C 93 % 1020,0 hPa 0,0 l/m 1,8 km/h (1 Bft) W-NW 296 0 min 0,000 mm 1,0 UV-I 116 W/m 13,7 C 14,8 C 4,0 km/h (1 Bft) 0,00 %
28.06.2015 08:00 14,8 C 93 % 1020,0 hPa 0,0 l/m 1,8 km/h (1 Bft) N-NW 329 5 min 0,000 mm 1,0 UV-I 329 W/m 13,7 C 14,8 C 4,0 km/h (1 Bft) 0,00 %
28.06.2015 08:05 14,7 C 92 % 1019,9 hPa 0,0 l/m 1,4 km/h (1 Bft) N-NW 346 5 min 0,000 mm 1,0 UV-I 431 W/m 13,4 C 14,7 C 4,0 km/h (1 Bft) 0,00 %
28.06.2015 08:10 14,7 C 92 % 1020,0 hPa 0,0 l/m 0,4 km/h (0 Bft) S-SO 150 5 min 0,000 mm 1,0 UV-I 302 W/m 13,4 C 14,7 C 4,0 km/h (1 Bft) 0,00 %
28.06.2015 08:15 14,9 C 92 % 1020,1 hPa 0,0 l/m 0,0 km/h (0 Bft) NW 305 0 min 0,000 mm 1,0 UV-I 214 W/m 13,6 C 14,9 C 0,0 km/h (0 Bft) 0,00 %
28.06.2015 08:20 15,2 C 90 % 1019,9 hPa 0,0 l/m 2,2 km/h (1 Bft) W-NW 294 5 min 0,000 mm 1,0 UV-I 343 W/m 13,6 C 15,2 C 4,0 km/h (1 Bft) 0,00 %
28.06.2015 08:25 15,6 C 89 % 1020,0 hPa 0,0 l/m 1,4 km/h (1 Bft) NW 318 5 min 0,000 mm 1,0 UV-I 338 W/m 13,8 C 15,6 C 4,0 km/h (1 Bft) 0,00 %
28.06.2015 08:30 15,9 C 86 % 1019,9 hPa 0,0 l/m 11,5 km/h (2 Bft) W-SW 256 0 min 0,000 mm 1,0 UV-I 272 W/m 13,6 C 13,5 C 15,8 km/h (3 Bft) 0,00 %
28.06.2015 08:35 15,9 C 85 % 1020,0 hPa 0,0 l/m 5,8 km/h (2 Bft) SW 226 5 min 0,000 mm 1,0 UV-I 291 W/m 13,4 C 15,9 C 7,9 km/h (2 Bft) 0,00 %
28.06.2015 08:40 16,1 C 83 % 1019,9 hPa 0,0 l/m 9,0 km/h (2 Bft) W-SW 253 5 min 0,000 mm 2,0 UV-I 476 W/m 13,2 C 14,8 C 11,9 km/h (2 Bft) 0,00 %
28.06.2015 08:45 16,0 C 83 % 1020,1 hPa 0,0 l/m 0,7 km/h (0 Bft) W-SW 254 5 min 0,000 mm 2,0 UV-I 419 W/m 13,1 C 16,0 C 4,0 km/h (1 Bft) 0,00 %
28.06.2015 08:50 15,8 C 83 % 1020,2 hPa 0,0 l/m 1,8 km/h (1 Bft) W-SW 256 5 min 0,000 mm 2,0 UV-I 643 W/m 12,9 C 15,8 C 4,0 km/h (1 Bft) 0,00 %
28.06.2015 08:55 15,8 C 83 % 1020,1 hPa 0,0 l/m 0,7 km/h (0 Bft) NO 42 5 min 0,000 mm 2,0 UV-I 533 W/m 12,9 C 15,8 C 4,0 km/h (1 Bft) 0,00 %
28.06.2015 09:00 16,1 C 84 % 1020,1 hPa 0,0 l/m 3,2 km/h (1 Bft) N-NW 329 5 min 0,000 mm 2,0 UV-I 387 W/m 13,4 C 16,1 C 4,0 km/h (1 Bft) 0,00 %
28.06.2015 09:05 16,6 C 83 % 1019,9 hPa 0,0 l/m 0,7 km/h (0 Bft) W-NW 294 5 min 0,000 mm 2,0 UV-I 367 W/m 13,7 C 16,6 C 4,0 km/h (1 Bft) 0,00 %
28.06.2015 09:10 17,3 C 78 % 1020,0 hPa 0,0 l/m 0,7 km/h (0 Bft) N 355 0 min 0,000 mm 2,0 UV-I 318 W/m 13,4 C 17,3 C 4,0 km/h (1 Bft) 0,00 %
28.06.2015 09:15 17,7 C 78 % 1019,7 hPa 0,0 l/m 3,2 km/h (1 Bft) W-SW 255 0 min 0,000 mm 2,0 UV-I 278 W/m 13,8 C 17,7 C 4,0 km/h (1 Bft) 0,00 %
28.06.2015 09:20 17,8 C 76 % 1020,0 hPa 0,0 l/m 7,2 km/h (2 Bft) N-NW 338 0 min 0,000 mm 2,0 UV-I 333 W/m 13,5 C 17,4 C 11,9 km/h (2 Bft) 0,00 %
28.06.2015 09:25 17,6 C 77 % 1020,0 hPa 0,0 l/m 1,4 km/h (1 Bft) W-NW 301 5 min 0,000 mm 2,0 UV-I 443 W/m 13,5 C 17,6 C 4,0 km/h (1 Bft) 0,00 %
28.06.2015 09:30 17,1 C 80 % 1020,4 hPa 0,0 l/m 5,4 km/h (1 Bft) N 355 5 min 0,000 mm 2,0 UV-I 429 W/m 13,6 C 17,1 C 11,9 km/h (2 Bft) 0,00 %
28.06.2015 09:35 16,7 C 81 % 1020,2 hPa 0,0 l/m 0,4 km/h (0 Bft) N-NW 335 5 min 0,000 mm 2,0 UV-I 388 W/m 13,4 C 16,7 C 4,0 km/h (1 Bft) 0,00 %
28.06.2015 09:40 16,7 C 81 % 1020,4 hPa 0,0 l/m 10,4 km/h (2 Bft) W 271 5 min 0,000 mm 2,0 UV-I 742 W/m 13,4 C 14,8 C 11,9 km/h (2 Bft) 0,00 %
28.06.2015 09:45 16,9 C 80 % 1020,1 hPa 0,0 l/m 4,0 km/h (1 Bft) W-SW 256 5 min 0,000 mm 3,0 UV-I 411 W/m 13,4 C 16,9 C 4,0 km/h (1 Bft) 0,00 %
28.06.2015 09:50 17,2 C 79 % 1020,1 hPa 0,0 l/m 0,0 km/h (0 Bft) SO 124 0 min 0,000 mm 2,0 UV-I 321 W/m 13,5 C 17,2 C 0,0 km/h (0 Bft) 0,00 %
28.06.2015 09:55 17,5 C 77 % 1020,1 hPa 0,0 l/m 0,0 km/h (0 Bft) N-NO 17 5 min 0,000 mm 3,0 UV-I 769 W/m 13,4 C 17,5 C 0,0 km/h (0 Bft) 0,00 %
28.06.2015 10:00 17,8 C 75 % 1020,4 hPa 0,0 l/m 1,4 km/h (1 Bft) N-NW 338 5 min 0,000 mm 2,0 UV-I 427 W/m 13,3 C 17,8 C 4,0 km/h (1 Bft) 0,00 %
28.06.2015 10:05 17,9 C 76 % 1020,2 hPa 0,0 l/m 0,0 km/h (0 Bft) NO 51 5 min 0,000 mm 2,0 UV-I 822 W/m 13,6 C 17,9 C 0,0 km/h (0 Bft) 0,00 %
28.06.2015 10:10 17,8 C 76 % 1020,2 hPa 0,0 l/m 4,7 km/h (1 Bft) W-SW 256 5 min 0,000 mm 3,0 UV-I 781 W/m 13,5 C 17,8 C 7,9 km/h (2 Bft) 0,00 %
28.06.2015 10:15 18,0 C 74 % 1020,3 hPa 0,0 l/m 1,4 km/h (1 Bft) N 352 5 min 0,000 mm 3,0 UV-I 621 W/m 13,3 C 18,0 C 4,0 km/h (1 Bft) 0,00 %
28.06.2015 10:20 18,3 C 74 % 1020,2 hPa 0,0 l/m 4,0 km/h (1 Bft) S-SW 210 5 min 0,000 mm 3,0 UV-I 703 W/m 13,6 C 18,3 C 7,9 km/h (2 Bft) 0,00 %
28.06.2015 10:25 18,5 C 72 % 1020,1 hPa 0,0 l/m 1,8 km/h (1 Bft) W-NW 297 5 min 0,000 mm 3,0 UV-I 454 W/m 13,4 C 18,5 C 4,0 km/h (1 Bft) 0,00 %
28.06.2015 10:30 18,9 C 70 % 1020,1 hPa 0,0 l/m 5,8 km/h (2 Bft) W-NW 301 5 min 0,000 mm 3,0 UV-I 623 W/m 13,3 C 18,9 C 7,9 km/h (2 Bft) 0,00 %
28.06.2015 10:35 19,1 C 70 % 1020,2 hPa 0,0 l/m 6,5 km/h (2 Bft) N-NO 20 5 min 0,000 mm 3,0 UV-I 552 W/m 13,5 C 19,1 C 11,9 km/h (2 Bft) 0,00 %
28.06.2015 10:40 19,1 C 68 % 1020,2 hPa 0,0 l/m 2,2 km/h (1 Bft) W-SW 249 5 min 0,000 mm 3,0 UV-I 821 W/m 13,1 C 19,1 C 4,0 km/h (1 Bft) 0,00 %
28.06.2015 10:45 19,0 C 70 % 1020,0 hPa 0,0 l/m 0,4 km/h (0 Bft) N-NW 347 5 min 0,000 mm 4,0 UV-I 767 W/m 13,4 C 19,0 C 4,0 km/h (1 Bft) 0,00 %
28.06.2015 10:50 19,3 C 67 % 1019,9 hPa 0,0 l/m 2,9 km/h (1 Bft) W 281 5 min 0,000 mm 4,0 UV-I 778 W/m 13,0 C 19,3 C 4,0 km/h (1 Bft) 0,00 %
28.06.2015 10:55 20,0 C 63 % 1019,6 hPa 0,0 l/m 4,0 km/h (1 Bft) NO 46 5 min 0,000 mm 4,0 UV-I 807 W/m 12,7 C 20,0 C 7,9 km/h (2 Bft) 0,00 %
28.06.2015 11:00 20,2 C 64 % 1019,8 hPa 0,0 l/m 2,9 km/h (1 Bft) N-NW 343 0 min 0,000 mm 4,0 UV-I 302 W/m 13,2 C 20,2 C 4,0 km/h (1 Bft) 0,00 %
28.06.2015 11:05 20,0 C 63 % 1019,7 hPa 0,0 l/m 0,4 km/h (0 Bft) N 351 5 min 0,000 mm 4,0 UV-I 850 W/m 12,7 C 20,0 C 4,0 km/h (1 Bft) 0,00 %
28.06.2015 11:10 20,1 C 62 % 1019,7 hPa 0,0 l/m 0,7 km/h (0 Bft) NW 309 0 min 0,000 mm 3,0 UV-I 347 W/m 12,6 C 20,1 C 4,0 km/h (1 Bft) 0,00 %
28.06.2015 11:15 20,2 C 65 % 1019,6 hPa 0,0 l/m 0,0 km/h (0 Bft) N-NO 19 5 min 0,000 mm 2,0 UV-I 876 W/m 13,4 C 20,2 C 0,0 km/h (0 Bft) 0,00 %
28.06.2015 11:20 20,0 C 66 % 1019,7 hPa 0,0 l/m 1,8 km/h (1 Bft) NW 325 5 min 0,000 mm 5,0 UV-I 490 W/m 13,4 C 20,0 C 4,0 km/h (1 Bft) 0,00 %
28.06.2015 11:25 20,3 C 62 % 1019,6 hPa 0,0 l/m 4,0 km/h (1 Bft) W 268 0 min 0,000 mm 2,0 UV-I 329 W/m 12,8 C 20,3 C 7,9 km/h (2 Bft) 0,00 %
28.06.2015 11:30 20,2 C 65 % 1019,6 hPa 0,0 l/m 0,0 km/h (0 Bft) N 350 5 min 0,000 mm 5,0 UV-I 818 W/m 13,4 C 20,2 C 0,0 km/h (0 Bft) 0,00 %
28.06.2015 11:35 20,0 C 63 % 1019,6 hPa 0,0 l/m 1,4 km/h (1 Bft) O 80 5 min 0,000 mm 3,0 UV-I 835 W/m 12,7 C 20,0 C 4,0 km/h (1 Bft) 0,00 %
28.06.2015 11:40 20,0 C 61 % 1019,6 hPa 0,0 l/m 3,2 km/h (1 Bft) W-NW 299 5 min 0,000 mm 2,0 UV-I 800 W/m 12,2 C 20,0 C 7,9 km/h (2 Bft) 0,00 %
28.06.2015 11:45 19,9 C 65 % 1019,6 hPa 0,0 l/m 4,0 km/h (1 Bft) N-NW 339 5 min 0,000 mm 5,0 UV-I 807 W/m 13,1 C 19,9 C 7,9 km/h (2 Bft) 0,00 %
28.06.2015 11:50 20,2 C 61 % 1019,4 hPa 0,0 l/m 1,4 km/h (1 Bft) NO 40 5 min 0,000 mm 5,0 UV-I 756 W/m 12,4 C 20,2 C 4,0 km/h (1 Bft) 0,00 %
28.06.2015 11:55 20,8 C 59 % 1019,4 hPa 0,0 l/m 0,0 km/h (0 Bft) O-NO 71 5 min 0,000 mm 3,0 UV-I 905 W/m 12,5 C 20,8 C 0,0 km/h (0 Bft) 0,00 %
28.06.2015 12:00 20,8 C 60 % 1019,3 hPa 0,0 l/m 1,8 km/h (1 Bft) W-SW 256 5 min 0,000 mm 5,0 UV-I 873 W/m 12,7 C 20,8 C 4,0 km/h (1 Bft) 0,00 %
28.06.2015 12:05 20,8 C 60 % 1019,2 hPa 0,0 l/m 1,4 km/h (1 Bft) W-SW 253 0 min 0,000 mm 5,0 UV-I 338 W/m 12,7 C 20,8 C 4,0 km/h (1 Bft) 0,00 %
28.06.2015 12:10 21,0 C 59 % 1019,2 hPa 0,0 l/m 9,0 km/h (2 Bft) W-SW 256 0 min 0,000 mm 5,0 UV-I 447 W/m 12,7 C 20,1 C 15,8 km/h (3 Bft) 0,00 %
28.06.2015 12:15 21,2 C 59 % 1019,3 hPa 0,0 l/m 0,4 km/h (0 Bft) W-NW 301 0 min 0,000 mm 3,0 UV-I 307 W/m 12,9 C 21,2 C 4,0 km/h (1 Bft) 0,00 %
28.06.2015 12:20 21,1 C 59 % 1019,2 hPa 0,0 l/m 2,9 km/h (1 Bft) O 81 5 min 0,000 mm 3,0 UV-I 870 W/m 12,8 C 21,1 C 7,9 km/h (2 Bft) 0,00 %
28.06.2015 12:25 21,2 C 61 % 1019,2 hPa 0,0 l/m 1,4 km/h (1 Bft) N-NW 339 5 min 0,000 mm 4,0 UV-I 923 W/m 13,4 C 21,2 C 4,0 km/h (1 Bft) 0,00 %
28.06.2015 12:30 21,2 C 59 % 1019,2 hPa 0,0 l/m 0,0 km/h (0 Bft) S-SW 213 5 min 0,000 mm 2,0 UV-I 871 W/m 12,9 C 21,2 C 0,0 km/h (0 Bft) 0,00 %
28.06.2015 12:35 21,1 C 59 % 1019,4 hPa 0,0 l/m 0,4 km/h (0 Bft) NO 47 5 min 0,000 mm 4,0 UV-I 886 W/m 12,8 C 21,1 C 4,0 km/h (1 Bft) 0,00 %
28.06.2015 12:40 21,1 C 60 % 1019,1 hPa 0,0 l/m 4,0 km/h (1 Bft) N 355 5 min 0,000 mm 6,0 UV-I 849 W/m 13,0 C 21,1 C 7,9 km/h (2 Bft) 0,00 %
28.06.2015 12:45 21,8 C 57 % 1019,1 hPa 0,0 l/m 0,0 km/h (0 Bft) O-NO 58 5 min 0,000 mm 6,0 UV-I 873 W/m 12,9 C 21,8 C 0,0 km/h (0 Bft) 0,00 %
28.06.2015 12:50 22,0 C 56 % 1018,8 hPa 0,0 l/m 2,9 km/h (1 Bft) O-SO 112 5 min 0,000 mm 6,0 UV-I 893 W/m 12,8 C 22,0 C 4,0 km/h (1 Bft) 0,00 %
28.06.2015 12:55 22,3 C 54 % 1019,1 hPa 0,0 l/m 3,2 km/h (1 Bft) N-NW 327 5 min 0,000 mm 6,0 UV-I 864 W/m 12,5 C 22,3 C 7,9 km/h (2 Bft) 0,00 %
28.06.2015 13:00 22,3 C 56 % 1019,1 hPa 0,0 l/m 1,8 km/h (1 Bft) W-SW 256 5 min 0,000 mm 5,0 UV-I 917 W/m 13,1 C 22,3 C 4,0 km/h (1 Bft) 0,00 %
28.06.2015 13:05 22,2 C 55 % 1019,0 hPa 0,0 l/m 4,0 km/h (1 Bft) W 262 0 min 0,000 mm 6,0 UV-I 352 W/m 12,7 C 22,2 C 4,0 km/h (1 Bft) 0,00 %
28.06.2015 13:10 22,3 C 55 % 1018,9 hPa 0,0 l/m 1,4 km/h (1 Bft) W 266 5 min 0,000 mm 3,0 UV-I 983 W/m 12,8 C 22,3 C 4,0 km/h (1 Bft) 0,00 %
28.06.2015 13:15 22,5 C 55 % 1018,8 hPa 0,0 l/m 0,7 km/h (0 Bft) W-NW 285 5 min 0,000 mm 5,0 UV-I 621 W/m 13,0 C 22,5 C 4,0 km/h (1 Bft) 0,00 %
28.06.2015 13:20 22,5 C 56 % 1018,9 hPa 0,0 l/m 4,3 km/h (1 Bft) W-SW 257 5 min 0,000 mm 5,0 UV-I 666 W/m 13,3 C 22,5 C 7,9 km/h (2 Bft) 0,00 %
28.06.2015 13:25 22,4 C 53 % 1018,9 hPa 0,0 l/m 7,9 km/h (2 Bft) NW 324 5 min 0,000 mm 5,0 UV-I 1004 W/m 12,3 C 21,9 C 11,9 km/h (2 Bft) 0,00 %
28.06.2015 13:30 22,2 C 55 % 1018,9 hPa 0,0 l/m 3,2 km/h (1 Bft) W-NW 294 5 min 0,000 mm 5,0 UV-I 985 W/m 12,7 C 22,2 C 4,0 km/h (1 Bft) 0,00 %
28.06.2015 13:35 22,5 C 55 % 1018,9 hPa 0,0 l/m 7,9 km/h (2 Bft) W-SW 253 5 min 0,000 mm 4,0 UV-I 1043 W/m 13,0 C 22,0 C 11,9 km/h (2 Bft) 0,00 %
28.06.2015 13:40 22,6 C 52 % 1018,9 hPa 0,0 l/m 6,5 km/h (2 Bft) W-SW 240 5 min 0,000 mm 5,0 UV-I 652 W/m 12,2 C 22,6 C 7,9 km/h (2 Bft) 0,00 %
28.06.2015 13:45 22,3 C 55 % 1018,8 hPa 0,0 l/m 0,7 km/h (0 Bft) N-NO 32 5 min 0,000 mm 6,0 UV-I 1080 W/m 12,8 C 22,3 C 4,0 km/h (1 Bft) 0,00 %
28.06.2015 13:50 22,2 C 52 % 1018,9 hPa 0,0 l/m 6,5 km/h (2 Bft) W 260 0 min 0,000 mm 4,0 UV-I 325 W/m 11,9 C 22,2 C 7,9 km/h (2 Bft) 0,00 %
28.06.2015 13:55 22,3 C 54 % 1018,9 hPa 0,0 l/m 1,8 km/h (1 Bft) W-NW 285 5 min 0,000 mm 4,0 UV-I 740 W/m 12,5 C 22,3 C 4,0 km/h (1 Bft) 0,00 %
28.06.2015 14:00 22,3 C 56 % 1018,7 hPa 0,0 l/m 0,7 km/h (0 Bft) O-NO 66 5 min 0,000 mm 3,0 UV-I 1058 W/m 13,1 C 22,3 C 4,0 km/h (1 Bft) 0,00 %
28.06.2015 14:05 22,5 C 53 % 1018,6 hPa 0,0 l/m 0,0 km/h (0 Bft) N 4 0 min 0,000 mm 2,0 UV-I 396 W/m 12,4 C 22,5 C 0,0 km/h (0 Bft) 0,00 %
28.06.2015 14:10 22,2 C 54 % 1018,5 hPa 0,0 l/m 0,4 km/h (0 Bft) N-NO 26 0 min 0,000 mm 2,0 UV-I 199 W/m 12,4 C 22,2 C 4,0 km/h (1 Bft) 0,00 %
28.06.2015 14:15 21,8 C 56 % 1018,6 hPa 0,0 l/m 2,9 km/h (1 Bft) W-SW 256 0 min 0,000 mm 2,0 UV-I 119 W/m 12,6 C 21,8 C 4,0 km/h (1 Bft) 0,00 %
28.06.2015 14:20 21,8 C 60 % 1018,7 hPa 0,0 l/m 0,4 km/h (0 Bft) N-NW 345 0 min 0,000 mm 5,0 UV-I 133 W/m 13,7 C 21,8 C 4,0 km/h (1 Bft) 0,00 %
28.06.2015 14:25 22,1 C 56 % 1018,6 hPa 0,0 l/m 2,9 km/h (1 Bft) NW 313 0 min 0,000 mm 3,0 UV-I 293 W/m 12,9 C 22,1 C 4,0 km/h (1 Bft) 0,00 %
28.06.2015 14:30 22,1 C 56 % 1018,6 hPa 0,0 l/m 2,9 km/h (1 Bft) W-SW 244 5 min 0,000 mm 1,0 UV-I 922 W/m 12,9 C 22,1 C 4,0 km/h (1 Bft) 0,00 %
28.06.2015 14:35 21,5 C 58 % 1018,8 hPa 0,0 l/m 0,0 km/h (0 Bft) NO 45 0 min 0,000 mm 1,0 UV-I 285 W/m 12,9 C 21,5 C 0,0 km/h (0 Bft) 0,00 %
28.06.2015 14:40 20,9 C 59 % 1018,9 hPa 0,0 l/m 5,8 km/h (2 Bft) N-NW 346 5 min 0,000 mm 5,0 UV-I 948 W/m 12,6 C 20,9 C 11,9 km/h (2 Bft) 0,00 %
28.06.2015 14:45 20,7 C 56 % 1018,7 hPa 0,0 l/m 3,2 km/h (1 Bft) N-NW 335 0 min 0,000 mm 5,0 UV-I 315 W/m 11,6 C 20,7 C 4,0 km/h (1 Bft) 0,00 %
28.06.2015 14:50 20,9 C 56 % 1018,6 hPa 0,0 l/m 1,8 km/h (1 Bft) NW 309 0 min 0,000 mm 5,0 UV-I 224 W/m 11,8 C 20,9 C 4,0 km/h (1 Bft) 0,00 %
28.06.2015 14:55 21,5 C 52 % 1018,8 hPa 0,0 l/m 4,7 km/h (1 Bft) NW 322 0 min 0,000 mm 2,0 UV-I 271 W/m 11,2 C 21,5 C 7,9 km/h (2 Bft) 0,00 %
28.06.2015 15:00 21,9 C 52 % 1018,6 hPa 0,0 l/m 2,2 km/h (1 Bft) NO 34 5 min 0,000 mm 5,0 UV-I 929 W/m 11,6 C 21,9 C 4,0 km/h (1 Bft) 0,00 %
28.06.2015 15:05 22,2 C 52 % 1018,4 hPa 0,0 l/m 0,4 km/h (0 Bft) N 354 5 min 0,000 mm 2,0 UV-I 918 W/m 11,9 C 22,2 C 4,0 km/h (1 Bft) 0,00 %
28.06.2015 15:10 22,3 C 50 % 1018,7 hPa 0,0 l/m 1,4 km/h (1 Bft) N 355 5 min 0,000 mm 4,0 UV-I 925 W/m 11,4 C 22,3 C 4,0 km/h (1 Bft) 0,00 %
28.06.2015 15:15 21,9 C 47 % 1018,4 hPa 0,0 l/m 0,0 km/h (0 Bft) N 354 5 min 0,000 mm 2,0 UV-I 920 W/m 10,1 C 21,9 C 0,0 km/h (0 Bft) 0,00 %
28.06.2015 15:20 21,7 C 48 % 1018,3 hPa 0,0 l/m 0,0 km/h (0 Bft) NO 49 5 min 0,000 mm 5,0 UV-I 965 W/m 10,2 C 21,7 C 0,0 km/h (0 Bft) 0,00 %
28.06.2015 15:25 22,3 C 44 % 1018,3 hPa 0,0 l/m 0,0 km/h (0 Bft) NO 44 5 min 0,000 mm 5,0 UV-I 997 W/m 9,5 C 22,3 C 0,0 km/h (0 Bft) 0,00 %
28.06.2015 15:30 23,0 C 42 % 1018,1 hPa 0,0 l/m 8,3 km/h (2 Bft) W 262 5 min 0,000 mm 4,0 UV-I 923 W/m 9,4 C 22,4 C 11,9 km/h (2 Bft) 0,00 %
28.06.2015 15:35 23,2 C 42 % 1018,2 hPa 0,0 l/m 0,4 km/h (0 Bft) N-NW 343 5 min 0,000 mm 4,0 UV-I 925 W/m 9,6 C 23,2 C 4,0 km/h (1 Bft) 0,00 %
28.06.2015 15:40 23,1 C 42 % 1018,0 hPa 0,0 l/m 1,8 km/h (1 Bft) NW 316 5 min 0,000 mm 5,0 UV-I 895 W/m 9,5 C 23,1 C 4,0 km/h (1 Bft) 0,00 %
28.06.2015 15:45 23,4 C 46 % 1018,1 hPa 0,0 l/m 0,4 km/h (0 Bft) O-NO 60 5 min 0,000 mm 4,0 UV-I 902 W/m 11,1 C 23,4 C 4,0 km/h (1 Bft) 0,00 %
28.06.2015 15:50 23,6 C 44 % 1018,0 hPa 0,0 l/m 0,0 km/h (0 Bft) O-NO 69 5 min 0,000 mm 4,0 UV-I 920 W/m 10,6 C 23,6 C 0,0 km/h (0 Bft) 0,00 %
28.06.2015 15:55 23,7 C 41 % 1018,1 hPa 0,0 l/m 4,7 km/h (1 Bft) N-NO 16 5 min 0,000 mm 4,0 UV-I 959 W/m 9,7 C 23,7 C 11,9 km/h (2 Bft) 0,00 %
28.06.2015 16:00 23,7 C 41 % 1018,1 hPa 0,0 l/m 7,2 km/h (2 Bft) W-SW 256 5 min 0,000 mm 4,0 UV-I 974 W/m 9,7 C 23,5 C 7,9 km/h (2 Bft) 0,00 %
28.06.2015 16:05 23,6 C 41 % 1018,2 hPa 0,0 l/m 4,3 km/h (1 Bft) S-SW 196 5 min 0,000 mm 4,0 UV-I 909 W/m 9,6 C 23,6 C 7,9 km/h (2 Bft) 0,00 %
28.06.2015 16:10 23,6 C 40 % 1018,1 hPa 0,0 l/m 0,0 km/h (0 Bft) N-NO 22 5 min 0,000 mm 4,0 UV-I 1006 W/m 9,2 C 23,6 C 0,0 km/h (0 Bft) 0,00 %
28.06.2015 16:15 23,9 C 39 % 1018,1 hPa 0,0 l/m 0,0 km/h (0 Bft) N-NW 345 5 min 0,000 mm 3,0 UV-I 932 W/m 9,1 C 23,9 C 0,0 km/h (0 Bft) 0,00 %
28.06.2015 16:20 23,8 C 42 % 1017,9 hPa 0,0 l/m 0,0 km/h (0 Bft) NO 44 5 min 0,000 mm 4,0 UV-I 915 W/m 10,1 C 23,8 C 0,0 km/h (0 Bft) 0,00 %
28.06.2015 16:25 23,7 C 43 % 1017,9 hPa 0,0 l/m 0,4 km/h (0 Bft) N-NW 347 5 min 0,000 mm 3,0 UV-I 923 W/m 10,4 C 23,7 C 4,0 km/h (1 Bft) 0,00 %
28.06.2015 16:30 23,9 C 42 % 1018,0 hPa 0,0 l/m 4,0 km/h (1 Bft) O-NO 59 5 min 0,000 mm 4,0 UV-I 906 W/m 10,2 C 23,9 C 7,9 km/h (2 Bft) 0,00 %
28.06.2015 16:35 24,0 C 40 % 1018,1 hPa 0,0 l/m 2,2 km/h (1 Bft) N-NW 347 5 min 0,000 mm 3,0 UV-I 926 W/m 9,6 C 24,0 C 4,0 km/h (1 Bft) 0,00 %
28.06.2015 16:40 24,0 C 40 % 1018,0 hPa 0,0 l/m 11,9 km/h (2 Bft) W-SW 256 5 min 0,000 mm 3,0 UV-I 868 W/m 9,6 C 22,7 C 15,8 km/h (3 Bft) 0,00 %
28.06.2015 16:45 23,9 C 40 % 1017,9 hPa 0,0 l/m 4,7 km/h (1 Bft) SW 217 0 min 0,000 mm 3,0 UV-I 277 W/m 9,5 C 23,9 C 7,9 km/h (2 Bft) 0,00 %
28.06.2015 16:50 23,8 C 41 % 1017,9 hPa 0,0 l/m 4,7 km/h (1 Bft) N-NW 343 5 min 0,000 mm 3,0 UV-I 857 W/m 9,7 C 23,8 C 7,9 km/h (2 Bft) 0,00 %
28.06.2015 16:55 23,7 C 41 % 1018,0 hPa 0,0 l/m 7,9 km/h (2 Bft) W-NW 282 5 min 0,000 mm 3,0 UV-I 830 W/m 9,7 C 23,3 C 11,9 km/h (2 Bft) 0,00 %
28.06.2015 17:00 23,8 C 41 % 1018,1 hPa 0,0 l/m 4,3 km/h (1 Bft) W-NW 284 5 min 0,000 mm 3,0 UV-I 802 W/m 9,7 C 23,8 C 7,9 km/h (2 Bft) 0,00 %
28.06.2015 17:05 23,7 C 41 % 1017,8 hPa 0,0 l/m 2,2 km/h (1 Bft) O-NO 76 5 min 0,000 mm 1,0 UV-I 831 W/m 9,7 C 23,7 C 4,0 km/h (1 Bft) 0,00 %
28.06.2015 17:10 23,2 C 41 % 1018,0 hPa 0,0 l/m 2,2 km/h (1 Bft) N 352 5 min 0,000 mm 3,0 UV-I 821 W/m 9,2 C 23,2 C 7,9 km/h (2 Bft) 0,00 %
28.06.2015 17:15 22,9 C 41 % 1017,8 hPa 0,0 l/m 4,3 km/h (1 Bft) W 281 5 min 0,000 mm 2,0 UV-I 801 W/m 8,9 C 22,9 C 7,9 km/h (2 Bft) 0,00 %
28.06.2015 17:20 23,0 C 41 % 1017,8 hPa 0,0 l/m 1,8 km/h (1 Bft) O 94 5 min 0,000 mm 2,0 UV-I 804 W/m 9,0 C 23,0 C 4,0 km/h (1 Bft) 0,00 %
28.06.2015 17:25 23,2 C 41 % 1017,7 hPa 0,0 l/m 0,0 km/h (0 Bft) NO 35 5 min 0,000 mm 2,0 UV-I 820 W/m 9,2 C 23,2 C 0,0 km/h (0 Bft) 0,00 %
28.06.2015 17:30 23,3 C 39 % 1017,8 hPa 0,0 l/m 0,4 km/h (0 Bft) NW 309 5 min 0,000 mm 2,0 UV-I 784 W/m 8,6 C 23,3 C 4,0 km/h (1 Bft) 0,00 %
28.06.2015 17:35 23,4 C 42 % 1017,7 hPa 0,0 l/m 1,8 km/h (1 Bft) N-NW 329 5 min 0,000 mm 2,0 UV-I 768 W/m 9,7 C 23,4 C 4,0 km/h (1 Bft) 0,00 %
28.06.2015 17:40 23,4 C 40 % 1017,5 hPa 0,0 l/m 0,0 km/h (0 Bft) NO 47 5 min 0,000 mm 2,0 UV-I 753 W/m 9,0 C 23,4 C 0,0 km/h (0 Bft) 0,00 %
28.06.2015 17:45 23,4 C 42 % 1017,6 hPa 0,0 l/m 4,0 km/h (1 Bft) W-NW 293 5 min 0,000 mm 2,0 UV-I 729 W/m 9,7 C 23,4 C 7,9 km/h (2 Bft) 0,00 %
28.06.2015 17:50 23,6 C 41 % 1017,7 hPa 0,0 l/m 0,4 km/h (0 Bft) NO 39 5 min 0,000 mm 2,0 UV-I 722 W/m 9,6 C 23,6 C 4,0 km/h (1 Bft) 0,00 %
28.06.2015 17:55 23,6 C 41 % 1017,6 hPa 0,0 l/m 2,9 km/h (1 Bft) W-NW 283 5 min 0,000 mm 1,0 UV-I 694 W/m 9,6 C 23,6 C 4,0 km/h (1 Bft) 0,00 %
28.06.2015 18:00 23,6 C 43 % 1017,6 hPa 0,0 l/m 5,4 km/h (1 Bft) W-SW 256 5 min 0,000 mm 1,0 UV-I 688 W/m 10,3 C 23,6 C 7,9 km/h (2 Bft) 0,00 %
28.06.2015 18:05 23,5 C 42 % 1017,7 hPa 0,0 l/m 0,4 km/h (0 Bft) N 354 5 min 0,000 mm 1,0 UV-I 666 W/m 9,8 C 23,5 C 4,0 km/h (1 Bft) 0,00 %
28.06.2015 18:10 23,4 C 37 % 1017,7 hPa 0,0 l/m 1,4 km/h (1 Bft) N-NW 346 5 min 0,000 mm 1,0 UV-I 660 W/m 7,9 C 23,4 C 4,0 km/h (1 Bft) 0,00 %
28.06.2015 18:15 23,3 C 39 % 1017,7 hPa 0,0 l/m 0,0 km/h (0 Bft) NO 38 5 min 0,000 mm 1,0 UV-I 641 W/m 8,6 C 23,3 C 0,0 km/h (0 Bft) 0,00 %
28.06.2015 18:20 23,4 C 41 % 1018,0 hPa 0,0 l/m 0,4 km/h (0 Bft) N-NO 14 5 min 0,000 mm 1,0 UV-I 636 W/m 9,4 C 23,4 C 4,0 km/h (1 Bft) 0,00 %
28.06.2015 18:25 23,2 C 40 % 1017,9 hPa 0,0 l/m 0,4 km/h (0 Bft) N-NO 30 5 min 0,000 mm 1,0 UV-I 594 W/m 8,8 C 23,2 C 4,0 km/h (1 Bft) 0,00 %
28.06.2015 18:30 23,0 C 43 % 1018,0 hPa 0,0 l/m 0,0 km/h (0 Bft) N 353 5 min 0,000 mm 1,0 UV-I 594 W/m 9,7 C 23,0 C 0,0 km/h (0 Bft) 0,00 %
28.06.2015 18:35 22,9 C 41 % 1018,0 hPa 0,0 l/m 4,7 km/h (1 Bft) W-SW 256 5 min 0,000 mm 1,0 UV-I 584 W/m 8,9 C 22,9 C 7,9 km/h (2 Bft) 0,00 %
28.06.2015 18:40 22,8 C 43 % 1017,9 hPa 0,0 l/m 4,3 km/h (1 Bft) W-NW 287 5 min 0,000 mm 1,0 UV-I 579 W/m 9,6 C 22,8 C 7,9 km/h (2 Bft) 0,00 %
28.06.2015 18:45 22,8 C 43 % 1018,0 hPa 0,0 l/m 2,2 km/h (1 Bft) O-NO 63 5 min 0,000 mm 1,0 UV-I 556 W/m 9,6 C 22,8 C 4,0 km/h (1 Bft) 0,00 %
28.06.2015 18:50 22,6 C 42 % 1018,2 hPa 0,0 l/m 4,3 km/h (1 Bft) W-SW 249 5 min 0,000 mm 1,0 UV-I 544 W/m 9,0 C 22,6 C 7,9 km/h (2 Bft) 0,00 %
28.06.2015 18:55 22,4 C 43 % 1018,1 hPa 0,0 l/m 1,8 km/h (1 Bft) W-NW 293 5 min 0,000 mm 1,0 UV-I 509 W/m 9,2 C 22,4 C 4,0 km/h (1 Bft) 0,00 %
28.06.2015 19:00 22,2 C 43 % 1018,1 hPa 0,0 l/m 6,5 km/h (2 Bft) W-SW 256 5 min 0,000 mm 1,0 UV-I 494 W/m 9,0 C 22,2 C 11,9 km/h (2 Bft) 0,00 %
28.06.2015 19:05 22,2 C 43 % 1018,1 hPa 0,0 l/m 0,0 km/h (0 Bft) NO 50 5 min 0,000 mm 1,0 UV-I 463 W/m 9,0 C 22,2 C 0,0 km/h (0 Bft) 0,00 %
28.06.2015 19:10 22,1 C 45 % 1018,2 hPa 0,0 l/m 0,7 km/h (0 Bft) NO 35 5 min 0,000 mm 1,0 UV-I 438 W/m 9,6 C 22,1 C 4,0 km/h (1 Bft) 0,00 %
28.06.2015 19:15 22,1 C 44 % 1018,1 hPa 0,0 l/m 0,0 km/h (0 Bft) N-NW 335 5 min 0,000 mm 1,0 UV-I 418 W/m 9,3 C 22,1 C 0,0 km/h (0 Bft) 0,00 %
28.06.2015 19:20 22,1 C 42 % 1018,4 hPa 0,0 l/m 2,9 km/h (1 Bft) W-NW 293 5 min 0,000 mm 1,0 UV-I 388 W/m 8,6 C 22,1 C 4,0 km/h (1 Bft) 0,00 %
28.06.2015 19:25 22,0 C 42 % 1018,4 hPa 0,0 l/m 2,9 km/h (1 Bft) S-SO 147 5 min 0,000 mm 1,0 UV-I 363 W/m 8,5 C 22,0 C 7,9 km/h (2 Bft) 0,00 %
28.06.2015 19:30 22,0 C 43 % 1018,5 hPa 0,0 l/m 0,0 km/h (0 Bft) N-NW 347 5 min 0,000 mm 1,0 UV-I 341 W/m 8,8 C 22,0 C 0,0 km/h (0 Bft) 0,00 %
28.06.2015 19:35 22,2 C 46 % 1018,3 hPa 0,0 l/m 4,3 km/h (1 Bft) W 269 5 min 0,000 mm 1,0 UV-I 304 W/m 10,0 C 22,2 C 7,9 km/h (2 Bft) 0,00 %
28.06.2015 19:40 22,5 C 42 % 1018,4 hPa 0,0 l/m 0,0 km/h (0 Bft) O-NO 72 5 min 0,000 mm 1,0 UV-I 278 W/m 8,9 C 22,5 C 0,0 km/h (0 Bft) 0,00 %
28.06.2015 19:45 22,7 C 43 % 1018,4 hPa 0,0 l/m 0,0 km/h (0 Bft) NW 308 5 min 0,000 mm 1,0 UV-I 260 W/m 9,5 C 22,7 C 0,0 km/h (0 Bft) 0,00 %
28.06.2015 19:50 22,2 C 45 % 1018,4 hPa 0,0 l/m 0,7 km/h (0 Bft) N 11 5 min 0,000 mm 1,0 UV-I 228 W/m 9,7 C 22,2 C 4,0 km/h (1 Bft) 0,00 %
28.06.2015 19:55 21,6 C 47 % 1018,6 hPa 0,0 l/m 3,2 km/h (1 Bft) W-SW 256 5 min 0,000 mm 0,0 UV-I 199 W/m 9,8 C 21,6 C 7,9 km/h (2 Bft) 0,00 %
28.06.2015 20:00 21,2 C 48 % 1018,8 hPa 0,0 l/m 1,8 km/h (1 Bft) N-NW 337 5 min 0,000 mm 0,0 UV-I 168 W/m 9,7 C 21,2 C 7,9 km/h (2 Bft) 0,00 %
28.06.2015 20:05 21,0 C 49 % 1018,8 hPa 0,0 l/m 2,9 km/h (1 Bft) W-NW 290 5 min 0,000 mm 0,0 UV-I 140 W/m 9,9 C 21,0 C 4,0 km/h (1 Bft) 0,00 %
28.06.2015 20:10 20,7 C 48 % 1019,0 hPa 0,0 l/m 0,0 km/h (0 Bft) NW 319 0 min 0,000 mm 0,0 UV-I 67 W/m 9,3 C 20,7 C 0,0 km/h (0 Bft) 0,00 %
28.06.2015 20:15 20,5 C 49 % 1019,1 hPa 0,0 l/m 2,9 km/h (1 Bft) N-NW 337 0 min 0,000 mm 0,0 UV-I 30 W/m 9,4 C 20,5 C 7,9 km/h (2 Bft) 0,00 %
28.06.2015 20:20 20,2 C 50 % 1019,3 hPa 0,0 l/m 1,4 km/h (1 Bft) N-NW 330 0 min 0,000 mm 0,0 UV-I 18 W/m 9,4 C 20,2 C 4,0 km/h (1 Bft) 0,00 %
28.06.2015 20:25 20,1 C 52 % 1019,2 hPa 0,0 l/m 0,4 km/h (0 Bft) NW 319 0 min 0,000 mm 0,0 UV-I 8 W/m 9,9 C 20,1 C 4,0 km/h (1 Bft) 0,00 %
28.06.2015 20:30 19,9 C 52 % 1019,6 hPa 0,0 l/m 0,0 km/h (0 Bft) NO 48 0 min 0,000 mm 0,0 UV-I 4 W/m 9,7 C 19,9 C 0,0 km/h (0 Bft) 0,00 %
28.06.2015 20:35 19,7 C 54 % 1019,4 hPa 0,0 l/m 0,0 km/h (0 Bft) NO 36 0 min 0,000 mm 0,0 UV-I 1 W/m 10,1 C 19,7 C 0,0 km/h (0 Bft) 0,00 %
28.06.2015 20:40 19,5 C 59 % 1019,5 hPa 0,0 l/m 0,0 km/h (0 Bft) N 354 0 min 0,000 mm 0,0 UV-I 0 W/m 11,3 C 19,5 C 0,0 km/h (0 Bft) 0,00 %
28.06.2015 20:45 19,1 C 63 % 1019,6 hPa 0,0 l/m 0,0 km/h (0 Bft) NO 39 0 min 0,000 mm 0,0 UV-I 0 W/m 11,9 C 19,1 C 0,0 km/h (0 Bft) 0,00 %
28.06.2015 20:50 18,6 C 65 % 1019,9 hPa 0,0 l/m 0,0 km/h (0 Bft) O-NO 57 0 min 0,000 mm 0,0 UV-I 0 W/m 11,9 C 18,6 C 0,0 km/h (0 Bft) 0,00 %
28.06.2015 20:55 18,1 C 69 % 1019,9 hPa 0,0 l/m 0,0 km/h (0 Bft) N 355 0 min 0,000 mm 0,0 UV-I 0 W/m 12,3 C 18,1 C 0,0 km/h (0 Bft) 0,00 %
28.06.2015 21:00 17,7 C 71 % 1020,1 hPa 0,0 l/m 0,0 km/h (0 Bft) NW 315 0 min 0,000 mm 0,0 UV-I 0 W/m 12,4 C 17,7 C 0,0 km/h (0 Bft) 0,00 %
28.06.2015 21:05 17,4 C 72 % 1020,0 hPa 0,0 l/m 0,0 km/h (0 Bft) NO 43 0 min 0,000 mm 0,0 UV-I 0 W/m 12,3 C 17,4 C 0,0 km/h (0 Bft) 0,00 %
28.06.2015 21:10 17,1 C 74 % 1020,0 hPa 0,0 l/m 0,0 km/h (0 Bft) NO 41 0 min 0,000 mm 0,0 UV-I 0 W/m 12,4 C 17,1 C 0,0 km/h (0 Bft) 0,00 %
28.06.2015 21:15 16,9 C 75 % 1020,3 hPa 0,0 l/m 0,0 km/h (0 Bft) NO 42 0 min 0,000 mm 0,0 UV-I 0 W/m 12,4 C 16,9 C 0,0 km/h (0 Bft) 0,00 %
28.06.2015 21:20 16,6 C 76 % 1020,3 hPa 0,0 l/m 0,0 km/h (0 Bft) NO 46 0 min 0,000 mm 0,0 UV-I 0 W/m 12,3 C 16,6 C 0,0 km/h (0 Bft) 0,00 %
28.06.2015 21:25 16,3 C 77 % 1020,5 hPa 0,0 l/m 0,0 km/h (0 Bft) NO 47 0 min 0,000 mm 0,0 UV-I 0 W/m 12,3 C 16,3 C 0,0 km/h (0 Bft) 0,00 %
28.06.2015 21:30 16,2 C 78 % 1020,7 hPa 0,0 l/m 0,0 km/h (0 Bft) O-NO 57 0 min 0,000 mm 0,0 UV-I 0 W/m 12,4 C 16,2 C 0,0 km/h (0 Bft) 0,00 %
28.06.2015 21:35 16,1 C 78 % 1020,6 hPa 0,0 l/m 0,0 km/h (0 Bft) N-NO 31 0 min 0,000 mm 0,0 UV-I 0 W/m 12,3 C 16,1 C 0,0 km/h (0 Bft) 0,00 %
28.06.2015 21:40 16,0 C 79 % 1020,8 hPa 0,0 l/m 0,0 km/h (0 Bft) N-NO 18 0 min 0,000 mm 0,0 UV-I 0 W/m 12,4 C 16,0 C 0,0 km/h (0 Bft) 0,00 %
28.06.2015 21:45 15,9 C 81 % 1020,7 hPa 0,0 l/m 0,0 km/h (0 Bft) NO 42 0 min 0,000 mm 0,0 UV-I 0 W/m 12,6 C 15,9 C 0,0 km/h (0 Bft) 0,00 %
28.06.2015 21:50 15,8 C 82 % 1020,8 hPa 0,0 l/m 0,0 km/h (0 Bft) O-NO 60 0 min 0,000 mm 0,0 UV-I 0 W/m 12,7 C 15,8 C 0,0 km/h (0 Bft) 0,00 %
28.06.2015 21:55 15,6 C 83 % 1020,9 hPa 0,0 l/m 0,0 km/h (0 Bft) NO 38 0 min 0,000 mm 0,0 UV-I 0 W/m 12,7 C 15,6 C 0,0 km/h (0 Bft) 0,00 %
28.06.2015 22:00 15,5 C 83 % 1020,9 hPa 0,0 l/m 0,0 km/h (0 Bft) NO 46 0 min 0,000 mm 0,0 UV-I 0 W/m 12,6 C 15,5 C 0,0 km/h (0 Bft) 0,00 %
28.06.2015 22:05 15,5 C 84 % 1021,0 hPa 0,0 l/m 0,0 km/h (0 Bft) NO 47 0 min 0,000 mm 0,0 UV-I 0 W/m 12,8 C 15,5 C 0,0 km/h (0 Bft) 0,00 %
28.06.2015 22:10 15,4 C 84 % 1021,0 hPa 0,0 l/m 0,0 km/h (0 Bft) NO 35 0 min 0,000 mm 0,0 UV-I 0 W/m 12,7 C 15,4 C 0,0 km/h (0 Bft) 0,00 %
28.06.2015 22:15 15,3 C 84 % 1020,9 hPa 0,0 l/m 0,0 km/h (0 Bft) NO 45 0 min 0,000 mm 0,0 UV-I 0 W/m 12,6 C 15,3 C 0,0 km/h (0 Bft) 0,00 %
28.06.2015 22:20 15,2 C 84 % 1021,1 hPa 0,0 l/m 0,0 km/h (0 Bft) NO 40 0 min 0,000 mm 0,0 UV-I 0 W/m 12,5 C 15,2 C 0,0 km/h (0 Bft) 0,00 %
28.06.2015 22:25 15,1 C 84 % 1021,1 hPa 0,0 l/m 0,0 km/h (0 Bft) NO 36 0 min 0,000 mm 0,0 UV-I 0 W/m 12,4 C 15,1 C 0,0 km/h (0 Bft) 0,00 %
28.06.2015 22:30 15,0 C 85 % 1021,2 hPa 0,0 l/m 0,0 km/h (0 Bft) O-NO 60 0 min 0,000 mm 0,0 UV-I 0 W/m 12,5 C 15,0 C 0,0 km/h (0 Bft) 0,00 %
28.06.2015 22:35 14,9 C 85 % 1021,2 hPa 0,0 l/m 0,0 km/h (0 Bft) NO 49 0 min 0,000 mm 0,0 UV-I 0 W/m 12,4 C 14,9 C 0,0 km/h (0 Bft) 0,00 %
28.06.2015 22:40 14,8 C 86 % 1021,2 hPa 0,0 l/m 0,0 km/h (0 Bft) NO 38 0 min 0,000 mm 0,0 UV-I 0 W/m 12,5 C 14,8 C 0,0 km/h (0 Bft) 0,00 %
28.06.2015 22:45 14,7 C 86 % 1021,5 hPa 0,0 l/m 0,0 km/h (0 Bft) NO 39 0 min 0,000 mm 0,0 UV-I 0 W/m 12,4 C 14,7 C 0,0 km/h (0 Bft) 0,00 %
28.06.2015 22:50 14,5 C 86 % 1021,3 hPa 0,0 l/m 0,0 km/h (0 Bft) NO 43 0 min 0,000 mm 0,0 UV-I 0 W/m 12,2 C 14,5 C 0,0 km/h (0 Bft) 0,00 %
28.06.2015 22:55 14,4 C 86 % 1021,3 hPa 0,0 l/m 0,0 km/h (0 Bft) NO 36 0 min 0,000 mm 0,0 UV-I 0 W/m 12,1 C 14,4 C 0,0 km/h (0 Bft) 0,00 %
28.06.2015 23:00 14,4 C 86 % 1021,4 hPa 0,0 l/m 0,0 km/h (0 Bft) O-NO 60 0 min 0,000 mm 0,0 UV-I 0 W/m 12,1 C 14,4 C 0,0 km/h (0 Bft) 0,00 %
28.06.2015 23:05 14,3 C 87 % 1021,4 hPa 0,0 l/m 0,0 km/h (0 Bft) NO 44 0 min 0,000 mm 0,0 UV-I 0 W/m 12,2 C 14,3 C 0,0 km/h (0 Bft) 0,00 %
28.06.2015 23:10 14,2 C 87 % 1021,5 hPa 0,0 l/m 0,0 km/h (0 Bft) NO 42 0 min 0,000 mm 0,0 UV-I 0 W/m 12,1 C 14,2 C 0,0 km/h (0 Bft) 0,00 %
28.06.2015 23:15 14,2 C 87 % 1021,4 hPa 0,0 l/m 0,0 km/h (0 Bft) NO 46 0 min 0,000 mm 0,0 UV-I 0 W/m 12,1 C 14,2 C 0,0 km/h (0 Bft) 0,00 %
28.06.2015 23:20 14,1 C 87 % 1021,4 hPa 0,0 l/m 0,0 km/h (0 Bft) N-NO 21 0 min 0,000 mm 0,0 UV-I 0 W/m 12,0 C 14,1 C 0,0 km/h (0 Bft) 0,00 %
28.06.2015 23:25 14,1 C 88 % 1021,4 hPa 0,0 l/m 0,0 km/h (0 Bft) NO 45 0 min 0,000 mm 0,0 UV-I 0 W/m 12,1 C 14,1 C 0,0 km/h (0 Bft) 0,00 %
28.06.2015 23:30 14,0 C 88 % 1021,4 hPa 0,0 l/m 0,0 km/h (0 Bft) NO 47 0 min 0,000 mm 0,0 UV-I 0 W/m 12,0 C 14,0 C 0,0 km/h (0 Bft) 0,00 %
28.06.2015 23:35 13,9 C 89 % 1021,5 hPa 0,0 l/m 0,0 km/h (0 Bft) N-NO 28 0 min 0,000 mm 0,0 UV-I 0 W/m 12,1 C 13,9 C 0,0 km/h (0 Bft) 0,00 %
28.06.2015 23:40 13,9 C 89 % 1021,5 hPa 0,0 l/m 0,0 km/h (0 Bft) NO 46 0 min 0,000 mm 0,0 UV-I 0 W/m 12,1 C 13,9 C 0,0 km/h (0 Bft) 0,00 %
28.06.2015 23:45 13,8 C 90 % 1021,7 hPa 0,0 l/m 0,0 km/h (0 Bft) NO 38 0 min 0,000 mm 0,0 UV-I 0 W/m 12,2 C 13,8 C 0,0 km/h (0 Bft) 0,00 %
28.06.2015 23:50 13,8 C 90 % 1021,6 hPa 0,0 l/m 0,0 km/h (0 Bft) NO 44 0 min 0,000 mm 0,0 UV-I 0 W/m 12,2 C 13,8 C 0,0 km/h (0 Bft) 0,00 %
28.06.2015 23:55 13,7 C 90 % 1021,7 hPa 0,0 l/m 0,0 km/h (0 Bft) NO 37 0 min 0,000 mm 0,0 UV-I 0 W/m 12,1 C 13,7 C 0,0 km/h (0 Bft) 0,00 %
_ Min-Zeit 00:10 18:10 17:40 - 00:00 - - - - - - 18:10 00:10 00:00 00:00
Minimum _ 12,8 C 37 % 1017,5 hPa - 0,0 km/h (0 Bft) - - - - - - 7,9 C 12,8 C 0,0 km/h (0 Bft) 0,00 %
_ Max-Zeit 16:35 03:40 23:45 05:40 16:40 - - 07:15 00:00 12:40 13:45 07:40 16:35 08:30 00:00
Maximum _ 24,0 C 96 % 1021,7 hPa 0,9 l/m 11,9 km/h
W-SW (2 Bft)
- - 5 min 0,000 mm 6,0 UV-I 1080 W/m 14,1 C 24,0 C 15,8 km/h
W-SW (3 Bft)
0,00 %
Durchschnitt _ 17,7 C 73 % 1019,3 hPa #3,0 l/m 1,5 km/h (1 Bft) W-SW - #10:20 h #0,000 mm 2,7 UV-I 530 W/m 11,9 C 17,7 C 3,1 km/h (1 Bft) 0,00 %